Probability
0 0 0 0 0 0 0 0 0 0 0 0 0 0 0 0 0 0 0 0 0 0 0 0 0 0 0 0 0 0 0 0 0 0 0 0 0 0 0 0 0 0 0
0 0 0 0 0 0 0 0 0 0 0 0 0 0 0 0 0 0 0 0 0 0 0 0 0 0 0 0 0 0 0 0 0 0 0 0 0 0 0 0 0 0 0
0 0 0 0 0 0 0 0 0 0 0 0 0 0 0 0 0 0 0 0 0 0 0 0 0 0 0 0 0 0 0 0 0 0 0 0 0 0 0 0 0 0 0
0 0 0 0 0 0 0 0 0 0 0 0 0 0 0 0 0 0 0 0 0 0 0 0 0 0 0 0 0 0 0 0 0 0 0 0 0 0 0 0 0 0 0
0 0 0 0 0 0 0 0 0 0 0 0 0 0 0 0 0 0 0 0 0 0 0 0 0 0 0 0 0 0 0 0 0 0 0 0 0 0 0 0 0 0 0
0 0 0 0 0 0 0 0 0 0 0 0 0 0 0 0 0 0 0 0 0 0 0 0 0 0 0 0 0 0 0 0 0 0 0 0 0 0 0 0 0 0 0
0 0 0 0 0 0 0 0 0 0 0 0 0 0 0 0 0 0 0 0 0 0 0 0 0 0 0 0 0 0 0 0 0 0 0 0 0 0 0 0 0 0 0
0 0 0 0 0 0 0 0 0 0 0 0 0 0 0 0 0 0 0 0 0 0 0 0 0 0 0 0 0 0 0 0 0 0 0 0 0 0 0 0 0 0 0
0 0 0 0 0 0 0 0 0 0 0 0 0 0 0 0 0 0 0 0 0 0 0 0 0 0 0 0 0 0 0 0 0 0 0 0 0 0 0 0 0 0 0
0 0 0 0 0 0 0 0 0 0 0 0 0 0 0 0 0 0 0 0 0 0 0 0 0 0 0 0 0 0 0 0 0 0 0 0 0 0 0 0 0 0 0
0 0 0 0 0 0 0 0 0 0 0 0 0 0 0 0 0 0 0 0 0 0 0 0 0 0 0 0 0 0 0 0 0 0 0 0 0 0 0 0 0 0 0
0 0 0 0 0 0 0 0 0 0 0 0 0 0 0 0 0 0 0 0 0 0 0 0 0 0 0 0 0 0 0 0 0 0 0 0 0 0 0 0 0 0 0
0 0 0 0 0 0 0 0 0 0 0 0 0 0 0 0 0 0 0 0 0 0 0 0 0 0 0 0 0 0 0 0 0 0 0 0 0 0 0 0 0 0 0
0 0 0 0 0 0 0 0 0 0 0 0 0 0 0 0 0 0 0 0 0 0 0 0 0 0 0 0 0 0 0 0 0 0 0 0 0 0 0 0 0 0 0
0 0 0 0 0 0 0 0 0 0 0 0 0 0 0 0 0 0 0 0 0 0 0 0 0 0 0 0 0 0 0 0 0 0 0 0 0 0 0 0 0 0 0
0 0 0 0 0 0 0 0 0 0 0 0 0 0 0 0 0 0 0 0 0 0 0 0 0 0 0 0 0 0 0 0 0 0 0 0 0 0 0 0 0 0 0
0 0 0 0 0 0 0 0 0 0 0 0 0 0 0 0 0 0 0 0 0 0 0 0 0 0 0 0 0 0 0 0 0 0 0 0 0 0 0 0 0 0 0
0 0 0 0 0 0 0 0 0 0 0 0 0 0 0 0 0 0 0 0 0 0 0 0 0 0 0 0 0 0 0 0 0 0 0 0 0 0 0 0 0 0 0
0 0 0 0 0 0 0 0 0 0 0 0 0 0 0 0 0 0 0 0 0 0 0 0 0 0 0 0 0 0 0 0 0 0 0 0 0 0 0 0 0 0 0
0 0 0 0 0 0 0 0 0 0 0 0 0 0 0 0 0 0 0 0 0 0 0 0 0 0 0 0 0 0 0 0 0 0 0 0 0 0 0 0 0 0 0
0 0 0 0 0 0 0 0 0 0 0 0 0 0 0 0 0 0 0 0 0 0 0 0 0 0 0 0 0 0 0 0 0 0 0 0 0 0 0 0 0 0 0
0 0 0 0 0 0 0 0 0 0 0 0 0 0 0 0 0 0 0 0 0 0 0 0 0 0 0 0 0 0 0 0 0 0 0 0 0 0 0 0 0 0 0
0 0 0 0 0 0 0 0 0 0 0 0 0 0 0 0 0 0 0 0 0 0 0 0 0 0 0 0 0 0 0 0 0 0 0 0 0 0 0 0 0 0 0
0 0 0 0 0 0 0 0 0 0 0 0 0 0 0 0 0 0 0 0 0 0 0 0 0 0 0 0 0 0 0 0 0 0 0 0 0 0 0 0 0 0 0
0 0 0 0 0 0 0 0 0 0 0 0 0 0 0 0 0 0 0 0 0 0 0 0 0 0 0 0 0 0 0 0 0 0 0 0 0 0 0 0 0 0 0
0 0 0 0 0 0 0 0 0 0 0 0 0 0 0 0 0 0 0 0 0 0 0 0 0 0 0 0 0 0 0 0 0 0 0 0 0 0 0 0 0 0 0
Height
5799 5798 5796 5794 5792 5790 5787 5784 5782 5779 5775 5772 5769 5765 5761 5757 5753 5749 5745 5741 5737 5732 5727 5723 5718 5713 5708 5703 5698 5692 5688 5684 5680 5675 5668 5662 5656 5651 5645 5640 5635 5630 5625
5791 5789 5787 5785 5782 5780 5777 5773 5770 5767 5763 5760 5756 5751 5747 5742 5738 5734 5729 5725 5720 5715 5710 5706 5701 5696 5691 5686 5680 5675 5670 5666 5663 5659 5652 5646 5640 5635 5630 5625 5619 5613 5608
5781 5779 5777 5775 5772 5769 5765 5762 5759 5755 5751 5746 5742 5737 5732 5727 5723 5718 5713 5708 5703 5698 5693 5688 5683 5679 5674 5669 5664 5659 5655 5650 5646 5643 5638 5631 5626 5620 5616 5610 5605 5599 5594
5772 5769 5767 5764 5760 5757 5753 5750 5746 5741 5737 5732 5727 5722 5717 5712 5707 5702 5696 5691 5686 5681 5676 5671 5667 5662 5657 5653 5648 5644 5640 5636 5631 5627 5623 5618 5612 5607 5602 5597 5592 5586 5581
5761 5758 5755 5752 5748 5744 5740 5736 5732 5727 5723 5718 5712 5707 5701 5696 5690 5685 5680 5675 5669 5664 5659 5655 5650 5645 5641 5637 5633 5629 5626 5622 5618 5614 5610 5605 5600 5595 5590 5585 5581 5576 5571
5750 5747 5743 5740 5736 5732 5727 5723 5718 5713 5708 5702 5697 5691 5685 5680 5674 5669 5663 5658 5653 5649 5644 5639 5635 5630 5626 5622 5618 5615 5612 5609 5606 5602 5598 5594 5589 5585 5581 5576 5572 5568 5564
5738 5735 5731 5728 5723 5719 5714 5709 5704 5699 5693 5687 5681 5675 5669 5663 5658 5653 5648 5643 5638 5633 5629 5625 5620 5616 5613 5609 5606 5602 5600 5597 5595 5592 5588 5585 5581 5577 5573 5569 5564 5560 5555
5727 5724 5719 5715 5711 5706 5701 5696 5690 5684 5678 5672 5666 5659 5653 5647 5642 5637 5632 5628 5624 5619 5615 5611 5608 5604 5601 5598 5595 5593 5590 5588 5585 5583 5580 5577 5574 5571 5567 5563 5559 5554 5548
5717 5713 5708 5703 5698 5693 5688 5682 5676 5670 5664 5657 5651 5644 5638 5633 5627 5623 5619 5614 5610 5607 5603 5600 5597 5594 5592 5590 5588 5585 5583 5581 5579 5577 5574 5572 5569 5565 5562 5558 5554 5549 5543
5706 5702 5697 5692 5687 5681 5675 5669 5663 5656 5649 5643 5636 5630 5624 5619 5614 5610 5606 5603 5599 5596 5594 5592 5590 5588 5586 5584 5582 5581 5579 5577 5575 5573 5570 5568 5565 5561 5558 5554 5549 5544 5539
5696 5691 5687 5682 5676 5670 5663 5657 5650 5643 5637 5630 5624 5619 5613 5608 5603 5600 5597 5594 5592 5589 5588 5586 5585 5583 5582 5581 5579 5578 5576 5574 5572 5570 5568 5565 5562 5559 5555 5550 5546 5541 5535
5687 5682 5678 5672 5666 5660 5653 5646 5640 5633 5627 5622 5616 5611 5605 5600 5597 5593 5591 5589 5587 5586 5584 5583 5582 5581 5580 5579 5578 5576 5575 5573 5571 5569 5567 5564 5560 5557 5553 5548 5543 5538 5533
5679 5674 5669 5664 5658 5651 5645 5638 5632 5626 5621 5615 5610 5605 5601 5597 5593 5590 5588 5587 5585 5584 5583 5582 5582 5581 5580 5579 5578 5576 5575 5573 5571 5569 5566 5563 5560 5556 5551 5547 5542 5536 5531
5672 5667 5662 5656 5650 5645 5639 5633 5627 5622 5617 5612 5607 5603 5599 5595 5592 5590 5588 5586 5585 5584 5584 5583 5582 5581 5581 5580 5579 5578 5576 5574 5572 5569 5566 5563 5559 5555 5550 5546 5541 5535 5530
5666 5661 5656 5651 5646 5640 5635 5630 5624 5619 5615 5610 5606 5602 5598 5595 5593 5590 5589 5588 5587 5586 5585 5585 5584 5583 5583 5582 5581 5579 5577 5575 5573 5570 5567 5563 5559 5555 5550 5546 5541 5535 5530
5661 5657 5652 5647 5643 5638 5633 5628 5623 5619 5614 5610 5606 5602 5599 5596 5594 5592 5591 5590 5589 5588 5588 5587 5587 5586 5585 5585 5583 5581 5579 5577 5574 5571 5568 5564 5560 5555 5551 5546 5541 5535 5530
5657 5653 5649 5645 5641 5637 5632 5628 5623 5619 5615 5611 5608 5604 5601 5599 5597 5595 5594 5593 5592 5592 5591 5590 5590 5589 5589 5588 5586 5584 5582 5579 5576 5573 5569 5565 5560 5556 5551 5546 5541 5536 5531
5654 5651 5647 5644 5640 5636 5632 5628 5624 5620 5617 5613 5610 5607 5604 5602 5600 5599 5598 5597 5596 5595 5595 5594 5594 5593 5592 5591 5589 5587 5584 5581 5578 5574 5570 5566 5562 5557 5552 5547 5542 5537 5532
5652 5649 5646 5643 5639 5636 5632 5629 5625 5621 5618 5615 5612 5610 5607 5606 5604 5603 5602 5601 5600 5600 5599 5598 5598 5597 5595 5594 5591 5589 5586 5583 5580 5576 5572 5568 5563 5558 5553 5548 5544 5539 5534
5650 5647 5644 5642 5639 5636 5632 5629 5626 5623 5620 5618 5615 5613 5611 5609 5608 5607 5606 5605 5605 5604 5603 5602 5601 5600 5598 5596 5594 5592 5589 5585 5582 5578 5574 5570 5565 5560 5555 5551 5546 5542 5537
5648 5645 5643 5640 5638 5635 5633 5630 5628 5625 5623 5620 5618 5616 5615 5613 5612 5611 5610 5610 5609 5608 5607 5606 5605 5603 5601 5599 5597 5594 5591 5588 5585 5581 5577 5572 5568 5563 5558 5553 5549 5545 5541
5647 5644 5642 5639 5637 5635 5633 5631 5629 5627 5625 5623 5621 5620 5618 5617 5616 5615 5614 5613 5612 5611 5610 5609 5608 5606 5604 5602 5599 5597 5594 5590 5587 5583 5579 5575 5571 5566 5562 5557 5553 5548 5545
5647 5644 5641 5639 5637 5635 5634 5632 5630 5629 5627 5626 5624 5623 5622 5621 5620 5619 5618 5617 5616 5615 5613 5612 5610 5609 5607 5604 5602 5599 5596 5593 5590 5586 5582 5578 5574 5570 5566 5561 5557 5553 5549
5647 5644 5642 5639 5637 5636 5634 5633 5632 5630 5629 5628 5626 5625 5624 5623 5622 5622 5621 5620 5619 5617 5616 5615 5613 5611 5609 5607 5604 5602 5599 5596 5593 5589 5586 5582 5578 5574 5570 5566 5562 5558 5554
5648 5645 5642 5640 5638 5637 5635 5634 5633 5632 5631 5629 5628 5628 5627 5626 5625 5624 5623 5622 5621 5620 5619 5617 5616 5614 5612 5610 5607 5605 5602 5599 5596 5593 5589 5585 5582 5578 5574 5570 5567 5563 5559
5649 5646 5644 5641 5639 5638 5636 5635 5634 5633 5632 5631 5630 5630 5629 5628 5627 5626 5625 5624 5623 5622 5621 5620 5618 5616 5615 5613 5610 5608 5606 5603 5600 5596 5593 5589 5586 5582 5578 5575 5571 5568 5564
Wind_Speed
40 40 41 43 44 45 46 48 49 51 52 53 55 56 57 58 59 60 61 62 62 62 62 62 63 63 64 64 64 64 63 63 62 61 61 62 62 61 62 62 63 63 62
40 41 42 43 44 46 48 50 52 53 55 56 58 60 61 61 62 62 63 63 63 64 64 65 65 64 64 63 63 62 61 60 59 58 58 58 59 59 59 59 59 58 57
40 41 42 44 46 48 50 52 54 56 58 59 60 61 62 63 64 64 64 64 65 65 65 64 64 64 63 61 60 59 59 58 57 56 55 56 56 56 55 55 53 51 49
41 43 45 47 49 50 53 54 55 57 59 60 61 62 63 64 64 64 64 64 64 64 64 63 63 61 60 59 58 57 56 55 54 54 53 52 52 52 50 48 46 45 44
43 45 47 48 50 52 53 54 56 57 58 59 60 61 62 63 63 63 63 63 62 62 62 61 60 59 57 56 55 54 53 52 51 50 49 48 47 45 43 41 39 36 37
43 45 46 48 49 51 51 53 55 56 57 58 59 59 60 61 61 61 60 60 59 59 58 57 55 54 52 51 50 50 49 47 46 44 43 41 38 37 35 33 32 31 31
43 45 46 48 49 50 51 52 53 54 55 56 56 57 58 58 57 57 56 56 55 54 52 51 49 48 47 46 45 44 43 41 39 36 34 32 31 29 27 27 28 29 29
42 43 44 46 48 49 49 50 51 52 52 53 54 54 55 54 54 53 52 51 50 49 47 45 43 42 40 39 38 37 35 33 30 28 25 24 23 23 23 23 24 25 27
40 41 42 43 44 45 46 48 49 50 51 51 51 51 51 51 50 49 47 45 43 41 39 36 35 33 32 30 28 27 26 24 21 19 18 18 18 19 20 21 22 23 24
38 39 39 41 42 43 45 46 48 48 48 48 47 45 44 43 43 41 39 37 34 32 29 27 26 24 23 21 19 18 17 16 15 15 15 15 16 17 19 20 21 21 22
35 36 37 38 40 41 43 43 43 42 41 39 38 37 35 34 33 31 28 25 23 21 20 18 17 15 14 12 12 11 11 11 11 12 13 14 16 17 18 19 19 20 21
32 33 34 35 36 38 38 37 36 34 32 31 30 28 27 25 22 19 17 15 14 13 12 10 8 7 7 7 7 7 7 8 9 11 12 13 15 16 17 17 19 20 20
29 30 31 32 33 33 32 30 29 28 26 25 23 21 19 17 15 12 10 9 7 7 6 5 4 4 5 5 6 6 7 8 10 11 12 13 15 16 16 18 19 20 21
26 27 28 28 29 28 27 25 24 23 22 20 19 17 15 13 10 8 7 6 5 5 5 5 5 6 6 7 7 8 9 10 11 12 13 14 15 16 17 18 19 21 21
23 24 24 24 24 23 23 22 20 19 18 17 16 14 12 10 8 7 6 6 6 7 7 8 8 8 8 9 9 10 11 12 13 14 15 16 17 17 18 19 20 21 21
20 20 20 20 19 20 19 18 17 16 15 14 13 12 11 9 8 8 8 8 9 9 10 10 10 10 10 11 11 12 13 13 14 15 16 18 18 19 19 20 20 21 21
17 17 17 17 17 16 16 16 15 15 14 13 12 11 10 10 9 9 9 10 10 10 11 11 11 11 12 12 13 13 14 15 16 17 18 19 20 21 21 21 21 21 21
15 15 14 15 15 14 14 14 14 13 13 12 11 11 10 10 10 10 10 11 11 11 11 12 12 12 12 13 13 14 15 16 18 19 19 20 21 22 22 22 22 22 21
14 13 13 13 13 13 13 13 13 12 12 11 11 11 11 11 11 11 11 11 11 11 12 12 12 12 12 13 13 14 16 17 19 20 21 22 23 23 23 22 22 22 21
13 12 12 12 11 11 11 11 11 10 10 11 11 11 11 11 11 11 11 11 11 11 11 11 11 12 12 13 14 15 16 18 19 21 22 23 23 23 23 23 22 22 21
13 12 11 10 10 9 9 9 9 9 10 10 10 10 11 11 11 11 11 11 11 11 11 11 11 12 12 13 14 15 16 17 19 21 22 23 23 24 24 24 22 22 21
12 11 10 9 9 8 8 9 9 9 9 9 9 9 10 10 10 10 10 10 10 10 10 11 11 11 12 13 14 15 16 18 19 20 21 22 23 24 24 24 23 22 21
12 11 9 8 8 7 7 7 8 8 8 8 8 8 8 9 9 9 9 9 9 9 10 10 10 11 12 13 14 15 16 17 18 20 20 22 23 24 24 24 23 22 22
12 11 10 9 8 7 7 6 6 6 6 7 7 7 7 8 8 8 8 8 8 8 9 9 10 11 12 13 14 14 15 16 18 19 20 21 22 22 23 23 23 23 22
13 12 11 10 9 7 6 6 5 5 5 6 6 6 6 7 7 7 7 7 8 8 8 9 10 11 12 13 13 14 15 16 17 18 20 20 21 22 22 22 22 22 22
15 14 12 11 9 8 6 6 6 5 5 6 6 6 6 6 6 7 7 7 7 8 8 9 10 11 12 13 14 14 15 16 17 18 19 20 21 21 21 21 21 21 21
Wind_Direction
273 274 276 277 278 280 281 282 284 285 286 287 287 288 289 289 288 288 289 289 289 290 290 290 290 290 290 290 290 289 289 289 288 287 287 287 286 286 287 287 288 288 288
273 275 277 278 279 280 281 283 284 285 286 286 287 288 288 288 288 289 290 290 290 290 290 290 290 290 290 290 290 289 289 289 289 288 288 288 288 289 289 289 290 290 290
275 277 278 279 280 281 282 283 284 284 285 286 287 288 289 289 289 290 290 290 290 290 290 290 290 290 290 289 289 288 289 289 289 289 289 289 290 290 291 291 291 291 291
277 278 279 280 280 281 282 283 284 286 287 287 288 288 289 289 289 289 289 289 289 289 289 289 289 289 289 288 288 288 289 289 289 290 290 291 291 292 292 293 293 293 293
279 279 280 281 282 283 284 285 286 287 288 288 288 288 288 288 288 288 288 289 289 289 289 289 289 288 288 288 288 288 288 289 289 290 291 292 293 293 295 295 295 295 296
280 281 283 285 286 287 287 288 288 288 289 289 289 289 289 288 288 288 289 289 289 289 289 289 289 289 288 288 288 288 288 289 289 291 292 293 294 295 296 297 299 299 299
283 285 286 287 288 289 290 291 291 291 291 290 290 290 289 289 289 289 289 289 289 289 289 289 289 288 289 289 289 289 289 289 290 292 293 294 296 298 300 302 304 305 305
286 288 289 290 291 292 292 292 293 293 292 292 291 291 291 290 290 290 290 290 290 289 289 288 288 288 288 288 289 290 291 292 294 296 298 300 302 304 306 308 310 311 310
292 294 295 295 296 296 295 295 295 294 294 294 293 292 292 291 290 290 290 290 290 290 290 289 288 289 290 291 293 294 295 298 301 303 306 308 310 313 315 317 318 318 317
296 297 298 298 298 299 299 298 298 297 297 297 296 295 294 293 292 291 290 290 290 290 290 290 291 292 293 294 295 297 301 306 312 316 319 322 323 325 327 327 326 326 326
300 301 302 302 303 303 303 303 303 303 302 302 301 300 299 297 296 295 293 292 292 293 294 295 296 297 298 300 303 308 314 320 325 329 332 333 333 334 334 334 335 335 335
303 304 305 307 308 309 310 310 310 311 310 309 308 308 307 306 305 304 302 300 301 302 304 306 309 313 318 323 330 335 339 343 344 344 342 340 340 340 341 342 343 344 344
307 309 311 313 315 316 318 319 319 319 318 318 319 319 319 319 319 319 319 321 324 329 334 344 354 360 3 9 14 14 11 6 1 356 353 352 351 349 348 348 349 349 350
312 315 317 319 322 324 325 327 327 327 328 328 330 331 332 335 339 345 352 358 7 20 32 40 43 48 49 46 41 35 28 22 16 10 6 1 358 357 355 354 354 354 355
318 321 324 327 330 332 334 335 335 336 337 339 341 343 348 355 3 13 25 38 49 57 60 65 69 66 60 53 48 42 36 29 23 18 13 9 6 2 360 358 358 358 359
323 327 330 334 337 338 340 342 345 346 349 352 357 3 11 20 29 40 52 60 64 69 71 73 70 66 63 58 50 42 36 30 25 21 16 12 9 6 4 2 2 2 4
330 334 336 340 343 345 348 351 353 355 359 4 11 18 27 37 48 57 65 68 73 75 74 75 73 69 64 56 48 42 36 29 24 20 16 13 10 7 6 6 6 7 8
335 338 341 345 348 350 353 355 359 3 7 12 21 31 40 48 57 65 71 73 76 78 77 76 73 68 61 53 46 40 33 28 24 20 17 13 11 10 10 11 11 12 14
341 342 342 343 346 351 356 1 5 10 16 23 32 40 47 55 64 70 73 75 77 76 74 73 69 63 56 49 42 36 31 27 24 21 19 17 15 15 15 16 18 19 21
343 342 342 342 346 353 360 7 13 20 27 33 40 47 54 62 68 73 76 76 75 73 70 66 61 55 48 42 36 32 28 25 23 20 20 20 20 19 19 21 23 25 28
347 345 344 345 349 358 7 14 21 29 35 40 46 53 61 68 72 74 74 73 71 69 65 59 53 47 41 36 32 29 26 25 22 21 21 21 22 23 23 25 26 29 33
354 354 353 353 356 3 12 19 25 32 38 44 50 58 65 71 72 72 70 69 67 63 57 51 45 41 36 33 30 28 27 25 23 22 23 24 25 27 28 29 31 33 36
4 4 3 4 7 13 20 24 28 33 40 46 53 60 66 69 70 70 68 65 61 57 51 46 43 40 36 32 30 30 29 27 25 24 25 26 27 29 30 32 34 37 40
13 13 13 14 15 17 21 27 32 37 43 48 54 61 66 67 67 66 65 63 59 54 48 44 42 39 36 33 32 33 32 30 29 28 28 28 29 29 31 33 36 39 42
20 20 21 21 21 23 27 32 36 40 46 53 60 65 67 67 67 67 65 63 58 55 50 47 44 40 38 38 38 38 35 33 32 31 30 30 30 30 31 34 37 40 43
25 25 26 28 29 33 37 41 45 50 55 59 66 69 70 69 69 68 65 62 59 57 55 51 48 45 45 46 44 41 38 35 34 33 33 33 33 33 34 36 39 41 44